Weather History for Port Angeles, WA

Change the Weather History Date:

Monday, February 18, 2013

  Actual Average Record
Temperature  
Mean Temperature 40 °F -  
Max Temperature 45 °F 47 °F 68 °F (2004)
Min Temperature 34 °F 35 °F 20 °F (1990)
Degree Days  
Heating Degree Days 26    
Moisture  
Dew Point 34 °F    
Average Humidity 80    
Maximum Humidity 92    
Minimum Humidity 68    
Precipitation  
Precipitation 0.00 in - - ()
Sea Level Pressure  
Sea Level Pressure 29.89 in    
Wind  
Wind Speed 5 mph (SW)    
Max Wind Speed 9 mph    
Max Gust Speed -    
Visibility 10 miles    
Events      
Averages and records for this station are not official NWS values.
T = Trace of Precipitation, MM = Missing Value Source: NWS Daily Summary

Daily Weather History Graph

Daily Weather History Graph

Search for Another Location

Airport:

Trip Planner

Search our weather history database for the weather conditions in past years. The results will help you decide how hot, cold, wet, or windy it might be!

Date:

Astronomy

Feb. 18, 2013 Rise Set
Actual Time 7:14 AM PST 5:41 PM PST
Civil Twilight 6:42 AM PST 6:13 PM PST
Nautical Twilight 6:06 AM PST 6:49 PM PST
Astronomical Twilight 5:30 AM PST 7:25 PM PST
Moon 11:18 AM PST (2/18) 2:12 AM PST (2/18)
Length of Visible Light 11h 30m
Length of Day
10h 26m
First Quarter, 59% of the Moon is Illuminated
Feb 18
First Quarter
Feb 25
Full
Mar 4
Last Quarter
Mar 11
New
Mar 19
First Quarter

Hourly Weather History & Observations

Time (PST) Temp. Windchill Dew Point Humidity Pressure Visibility Wind Dir Wind Speed Gust Speed Precip Events Conditions
12:40 AM 34.0 °F 28.0 °F 32.0 °F 92% 30.08 in 10.0 mi SW 6.9 mph - N/A   Mostly Cloudy
12:53 AM 36.0 °F 32.1 °F 33.1 °F 89% 30.09 in 10.0 mi SW 4.6 mph - N/A   Mostly Cloudy
1:53 AM 37.0 °F 30.4 °F 33.1 °F 86% 30.07 in 10.0 mi WSW 9.2 mph - N/A   Partly Cloudy
2:53 AM 37.9 °F 32.1 °F 32.0 °F 79% 30.05 in 10.0 mi WSW 8.1 mph - N/A   Mostly Cloudy
3:53 AM 37.0 °F 31.6 °F 30.9 °F 79% 30.03 in 10.0 mi WSW 6.9 mph - N/A   Mostly Cloudy
4:53 AM 37.9 °F 33.5 °F 30.9 °F 76% 30.01 in 10.0 mi WSW 5.8 mph - N/A   Overcast
5:53 AM 37.0 °F 33.3 °F 30.9 °F 79% 30.00 in 10.0 mi WSW 4.6 mph - N/A   Overcast
6:53 AM 37.9 °F 32.7 °F 30.9 °F 76% 29.99 in 10.0 mi WSW 6.9 mph - N/A   Overcast
7:53 AM 37.0 °F - 32.0 °F 82% 29.97 in 10.0 mi Calm Calm - N/A   Overcast
8:53 AM 37.9 °F 35.5 °F 33.1 °F 83% 29.96 in 10.0 mi SW 3.5 mph - N/A   Overcast
9:53 AM 42.1 °F 40.2 °F 35.1 °F 76% 29.94 in 10.0 mi SE 3.5 mph - 0.00 in   Mostly Cloudy
10:53 AM 43.0 °F 40.3 °F 35.1 °F 74% 29.93 in 10.0 mi East 4.6 mph - N/A   Overcast
11:53 AM 44.1 °F 40.1 °F 36.0 °F 73% 29.91 in 10.0 mi NE 6.9 mph - N/A   Overcast
12:53 PM 43.0 °F 39.5 °F 36.0 °F 76% 29.88 in 10.0 mi Variable 5.8 mph - N/A   Overcast
1:53 PM 44.1 °F 42.5 °F 35.1 °F 71% 29.86 in 10.0 mi Variable 3.5 mph - N/A   Overcast
2:53 PM 44.1 °F 41.5 °F 35.1 °F 71% 29.85 in 10.0 mi NNW 4.6 mph - N/A   Overcast
3:53 PM 45.0 °F - 35.1 °F 68% 29.81 in 10.0 mi Calm Calm - N/A   Overcast
4:53 PM 43.0 °F - 35.1 °F 74% 29.79 in 10.0 mi Calm Calm - N/A   Mostly Cloudy
5:53 PM 39.9 °F - 34.0 °F 79% 29.77 in 10.0 mi Calm Calm - N/A   Mostly Cloudy
6:53 PM 36.0 °F - 33.1 °F 89% 29.75 in 10.0 mi Calm Calm - N/A   Scattered Clouds
7:53 PM 36.0 °F 33.3 °F 33.1 °F 89% 29.74 in 10.0 mi SSE 3.5 mph - N/A   Mostly Cloudy
8:53 PM 37.0 °F 31.6 °F 34.0 °F 89% 29.73 in 10.0 mi SW 6.9 mph - N/A   Overcast
9:53 PM 37.0 °F 33.3 °F 34.0 °F 89% 29.72 in 10.0 mi SW 4.6 mph - N/A   Mostly Cloudy
10:53 PM 39.0 °F 34.0 °F 34.0 °F 82% 29.71 in 10.0 mi West 6.9 mph - N/A   Overcast
11:53 PM 39.0 °F 34.0 °F 34.0 °F 82% 29.72 in 10.0 mi West 6.9 mph - N/A   Mostly Cloudy